Location: Zagreb
(45.8000°N, 16.0000°E)
Time: 13:44:48
(UTC+02:00)

Transit 2A Rocket - Pass Details

Date: 16 August 2022
Orbit: 593 x 907 km, 66.7° (Epoch: 25 September)

Event Time Altitude Azimuth Distance (km) Brightness Sun altitude
Rises 17:49:52 0° 196° (SSW) 3,003 8.3 21.9°
Reaches altitude 10° 17:52:18 10° 190° (S) 2,050 7.5 21.5°
Maximum altitude 17:56:42 47° 117° (ESE) 823 5.1 20.7°
Drops below altitude 10° 18:00:53 10° 44° (NE) 1,953 6.8 20.0°
Sets 18:03:09 0° 38° (NE) 2,846 7.6 19.6°
